EWG15G LPPS-LPMA

Flight info

Callsign EWG15G
Flight time 0h 14m
Altitude 7000
Route PILIM DCT MA530 DCT MA528 DCT MA526 DCT MA522 DCT MA520 DCT GELO DCT ROSRO DCT MA502
Aircraft A20N/M-SDE2E3FGHIRWXY/LB1

Departure

Time 2026-05-06 10:59
Airport Porto Santo Airport (LPPS)

Arrival

Time 2026-05-06 11:14
Airport Cristiano Ronaldo International Airport (LPMA)
Time Latitude Longitude Altitude Speed Heading
2026-05-06 10:30 33.07187 -16.34636 294 ft 0 kts 135°
2026-05-06 10:46 33.07189 -16.34637 294 ft 0 kts 118°
2026-05-06 10:47 33.07190 -16.34639 294 ft 0 kts 116°
2026-05-06 10:47 33.07192 -16.34643 294 ft 2 kts 108°
2026-05-06 10:48 33.07195 -16.34662 299 ft 2 kts 83°
2026-05-06 10:48 33.07191 -16.34681 294 ft 2 kts 70°
2026-05-06 10:48 33.07188 -16.34701 297 ft 2 kts 101°
2026-05-06 10:48 33.07195 -16.34718 298 ft 2 kts 151°
2026-05-06 10:49 33.07210 -16.34724 296 ft 2 kts 175°
2026-05-06 10:49 33.07214 -16.34724 297 ft 0 kts 178°
2026-05-06 10:51 33.07204 -16.34724 300 ft 5 kts 178°
2026-05-06 10:52 33.07127 -16.34720 293 ft 16 kts 177°
2026-05-06 10:52 33.07015 -16.34715 288 ft 13 kts 178°
2026-05-06 10:52 33.06976 -16.34723 290 ft 0 kts 217°
2026-05-06 10:52 33.06972 -16.34743 286 ft 7 kts 252°
2026-05-06 10:53 33.06963 -16.34822 286 ft 11 kts 268°
2026-05-06 10:53 33.06963 -16.34847 286 ft 2 kts 270°
2026-05-06 10:53 33.06963 -16.34851 286 ft 0 kts 270°
2026-05-06 10:53 33.06963 -16.34852 286 ft 1 kts 270°
2026-05-06 10:54 33.06963 -16.34873 286 ft 4 kts 270°
2026-05-06 10:54 33.06961 -16.34916 287 ft 6 kts 265°
2026-05-06 10:54 33.06936 -16.34968 288 ft 9 kts 212°
2026-05-06 10:54 33.06852 -16.34976 283 ft 17 kts 179°
2026-05-06 10:55 33.06691 -16.34967 274 ft 28 kts 176°
2026-05-06 10:55 33.06480 -16.34960 267 ft 33 kts 179°
2026-05-06 10:55 33.06262 -16.34951 257 ft 26 kts 176°
2026-05-06 10:55 33.06148 -16.34934 254 ft 9 kts 146°
2026-05-06 10:56 33.06093 -16.34867 253 ft 12 kts 139°
2026-05-06 10:56 33.06026 -16.34834 251 ft 10 kts 172°
2026-05-06 10:56 33.06009 -16.34840 250 ft 4 kts 208°
2026-05-06 10:56 33.06005 -16.34847 250 ft 1 kts 239°
2026-05-06 10:57 33.06004 -16.34855 250 ft 3 kts 252°
2026-05-06 10:57 33.06001 -16.34895 250 ft 7 kts 272°
2026-05-06 10:57 33.06025 -16.34940 251 ft 6 kts 338°
2026-05-06 10:57 33.06038 -16.34942 251 ft 0 kts 355°
2026-05-06 10:58 33.06074 -16.34944 252 ft 20 kts 357°
2026-05-06 10:58 33.06458 -16.34958 266 ft 88 kts 358°
2026-05-06 10:58 33.07252 -16.34996 301 ft 137 kts 356°
2026-05-06 10:59 33.08229 -16.35058 796 ft 140 kts
2026-05-06 10:59 33.09210 -16.35096 1403 ft 142 kts
2026-05-06 10:59 33.10201 -16.35106 2092 ft 142 kts
2026-05-06 10:59 33.11246 -16.35123 2657 ft 158 kts
2026-05-06 11:00 33.12004 -16.35142 3041 ft 171 kts
2026-05-06 11:00 33.13729 -16.35198 3848 ft 199 kts 357°
2026-05-06 11:00 33.14655 -16.35451 4236 ft 216 kts 339°
2026-05-06 11:00 33.15913 -16.36574 4828 ft 241 kts 310°
2026-05-06 11:01 33.16617 -16.39192 5837 ft 262 kts 270°
2026-05-06 11:01 33.16196 -16.41297 6564 ft 265 kts 248°
2026-05-06 11:01 33.15613 -16.42642 6839 ft 269 kts 243°
2026-05-06 11:01 33.14654 -16.44580 7066 ft 272 kts 242°
2026-05-06 11:02 33.13733 -16.46541 7154 ft 272 kts 244°
2026-05-06 11:02 33.12878 -16.48551 7159 ft 271 kts 246°
2026-05-06 11:02 33.12089 -16.50553 7152 ft 270 kts 248°
2026-05-06 11:02 33.11001 -16.52408 7168 ft 275 kts 224°
2026-05-06 11:03 33.09338 -16.53509 7157 ft 282 kts 198°
2026-05-06 11:03 33.07418 -16.54003 7162 ft 283 kts 193°
2026-05-06 11:03 33.05475 -16.54421 7157 ft 283 kts 192°
2026-05-06 11:03 33.03536 -16.54843 7158 ft 282 kts 193°
2026-05-06 11:04 33.01605 -16.55279 7163 ft 283 kts 193°
2026-05-06 11:04 32.99667 -16.55731 7166 ft 284 kts 194°
2026-05-06 11:04 32.97724 -16.56194 7164 ft 284 kts 194°
2026-05-06 11:04 32.95791 -16.56656 7162 ft 283 kts 194°
2026-05-06 11:05 32.94263 -16.57021 7166 ft 285 kts 194°
2026-05-06 11:05 32.92322 -16.57482 7154 ft 284 kts 193°
2026-05-06 11:05 32.90389 -16.57940 6997 ft 282 kts 193°
2026-05-06 11:05 32.88467 -16.58397 6695 ft 280 kts 193°
2026-05-06 11:06 32.86586 -16.58855 6538 ft 269 kts 197°
2026-05-06 11:06 32.84918 -16.59717 6461 ft 255 kts 216°
2026-05-06 11:06 32.83585 -16.61040 6242 ft 252 kts 226°
2026-05-06 11:06 32.82271 -16.62431 5815 ft 256 kts 219°
2026-05-06 11:07 32.80736 -16.63513 5414 ft 259 kts 205°
2026-05-06 11:07 32.79041 -16.64222 5046 ft 260 kts 199°
2026-05-06 11:07 32.77326 -16.64894 4706 ft 260 kts 199°
2026-05-06 11:07 32.75618 -16.65577 4585 ft 258 kts 199°
2026-05-06 11:08 32.73926 -16.66259 4312 ft 257 kts 199°
2026-05-06 11:08 32.72236 -16.66944 3857 ft 256 kts 199°
2026-05-06 11:08 32.70557 -16.67626 3417 ft 256 kts 199°
2026-05-06 11:08 32.68865 -16.68313 3050 ft 257 kts 199°
2026-05-06 11:09 32.67190 -16.68992 2691 ft 253 kts 199°
2026-05-06 11:09 32.65554 -16.69654 2530 ft 242 kts 199°
2026-05-06 11:09 32.64010 -16.70283 2373 ft 228 kts 201°
2026-05-06 11:09 32.62680 -16.71174 2197 ft 214 kts 220°
2026-05-06 11:10 32.61734 -16.72398 2090 ft 196 kts 238°
2026-05-06 11:10 32.61144 -16.73798 2000 ft 175 kts 255°
2026-05-06 11:10 32.60896 -16.75107 1986 ft 155 kts 269°
2026-05-06 11:10 32.60898 -16.76470 1997 ft 169 kts 282°
2026-05-06 11:11 32.61153 -16.77790 2002 ft 166 kts 295°
2026-05-06 11:11 32.61677 -16.78911 1987 ft 140 kts 315°
2026-05-06 11:11 32.62369 -16.79616 1862 ft 130 kts 335°
2026-05-06 11:11 32.63181 -16.80080 1626 ft 130 kts 339°
2026-05-06 11:12 32.63997 -16.80521 1443 ft 127 kts 345°
2026-05-06 11:12 32.64851 -16.80713 1312 ft 122 kts
2026-05-06 11:12 32.65687 -16.80594 1109 ft 120 kts
2026-05-06 11:12 32.66530 -16.80469 944 ft 125 kts
2026-05-06 11:13 32.67353 -16.80158 731 ft 127 kts 24°
2026-05-06 11:13 32.68018 -16.79495 474 ft 122 kts 43°
2026-05-06 11:13 32.68604 -16.78787 319 ft 121 kts 37°
2026-05-06 11:13 32.69227 -16.78090 193 ft 118 kts 41°
2026-05-06 11:14 32.69663 -16.77596 197 ft 45 kts 44°
2026-05-06 11:14 32.69829 -16.77410 210 ft 34 kts 44°
2026-05-06 11:14 32.69941 -16.77270 210 ft 9 kts 48°
2026-05-06 11:14 32.69962 -16.77205 213 ft 6 kts 112°
2026-05-06 11:15 32.69915 -16.77176 207 ft 9 kts 169°
2026-05-06 11:15 32.69837 -16.77187 205 ft 14 kts 203°
2026-05-06 11:15 32.69795 -16.77230 201 ft 0 kts 222°
2026-05-06 11:16 32.69786 -16.77241 203 ft 6 kts 225°
2026-05-06 11:17 32.69740 -16.77299 195 ft 13 kts 227°
2026-05-06 11:17 32.69674 -16.77383 194 ft 7 kts 223°
2026-05-06 11:17 32.69632 -16.77430 200 ft 10 kts 224°
2026-05-06 11:17 32.69590 -16.77448 192 ft 7 kts 158°
2026-05-06 11:18 32.69553 -16.77404 195 ft 6 kts 135°
2026-05-06 11:18 32.69540 -16.77389 197 ft 2 kts 135°
2026-05-06 11:18 32.69538 -16.77387 201 ft 0 kts 136°